LWSK

Skopje

Airport
ICAO code
LWSK
Summary
ICAO Region
EUR
ICAO Territory
Location

Skopje,

Coordinates
41° 57' 42" N , 21° 37' 20" E
KCC
Airport WX
Fog
Metar
Observation
LWSK 031830Z 06002KT 9999 FEW050 01/M03 Q1021 NOSIG
Station
Skopje-Petrovec
Date/Time
2023-02-03 19:30:00
Wind direction
60°
Wind speed
02 kts
Lowest cloud amount
few clouds
Temperature
1°C
Dew point
-3°C
Humidity
74%
QNH
1021 hPa
Weather condition
n/a

Description

Skopje Airport, or Skopje "Alexander the Great" Airport is the largest and busiest international airport in the Republic of Macedonia. Located 17 km southeast of the national capital, Skopje.

Climatology

Humid “subtropical” climate (Köppen climate classification Cfa) - characterized by hot, humid summers and cool winters. Significant amounts of precipitation occur in all seasons in most areas. Winter rainfall (and sometimes snowfall) is associated with large storms that the westerlies steer from west to east. Most summer rainfall occurs during thunderstorms.

Runways

Designator Length Width Surface Rops
16/34 2450 43 ASP Yes/Yes

Airport map

Aerial View

SKYbrary Partners:

Safety knowledge contributed by: